This is the latest recevied weather packets stored in our database for station/object N4WFF. If no packets are shown the sender has not sent any weather packets the latest 10 day(s).
| Time | Temp. | Humidity | Pressure | Rain* | Wind** | Luminosity | Snow |
|---|---|---|---|---|---|---|---|
| 1778141756 | 22.78° C | 95% | 1011 hPa | 3.3 mm | - | 0 W/m² | - |
| 1778141456 | 22.78° C | 95% | 1011.8 hPa | 1.27 mm | - | 0 W/m² | - |
| 1778141156 | 22.78° C | 95% | 1011.4 hPa | 1.27 mm | - | 0 W/m² | - |
| 1778140855 | 22.78° C | 94% | 1011.7 hPa | 1.02 mm | - | 0 W/m² | - |
| 1778140556 | 22.78° C | 94% | 1012.4 hPa | 4.57 mm | - | 0 W/m² | - |
| 1778140261 | 22.78° C | 93% | 1013.2 hPa | 5.08 mm | - | 0 W/m² | - |
| 1778139956 | 22.78° C | 93% | 1013.4 hPa | 4.32 mm | - | 0 W/m² | - |
| 1778139657 | 22.78° C | 93% | 1013.3 hPa | 2.03 mm | - | 0 W/m² | - |
| 1778139355 | 23.33° C | 92% | 1013.1 hPa | 2.03 mm | - | 0 W/m² | - |
| 1778139056 | 23.33° C | 92% | 1013.2 hPa | 2.29 mm | - | 0 W/m² | - |
| 1778138756 | 23.33° C | 92% | 1013.3 hPa | 0.25 mm | - | 0 W/m² | - |
| 1778138456 | 23.33° C | 91% | 1013.1 hPa | 0.25 mm | - | 0 W/m² | - |
| 1778138156 | 23.33° C | 91% | 1012.8 hPa | 0 mm | - | 0 W/m² | - |
| 1778137855 | 23.33° C | 91% | 1012.8 hPa | 0 mm | - | 0 W/m² | - |
| 1778137557 | 23.33° C | 91% | 1012.8 hPa | 0 mm | - | 0 W/m² | - |
| 1778137256 | 23.33° C | 91% | 1012.6 hPa | 0 mm | - | 0 W/m² | - |
| 1778136956 | 23.33° C | 91% | 1012.8 hPa | 0 mm | - | 0 W/m² | - |
| 1778136657 | 23.33° C | 91% | 1012.7 hPa | 0 mm | - | 0 W/m² | - |
| 1778136356 | 23.33° C | 91% | 1012.8 hPa | 0 mm | - | 0 W/m² | - |
| 1778136055 | 23.33° C | 91% | 1012.8 hPa | 0 mm | - | 0 W/m² | - |
| 1778135757 | 23.33° C | 91% | 1012.7 hPa | 0 mm | - | 0 W/m² | - |
| 1778135456 | 23.33° C | 91% | 1012.8 hPa | 0 mm | - | 0 W/m² | - |
| 1778135156 | 23.33° C | 91% | 1012.7 hPa | 0 mm | - | 0 W/m² | - |
| 1778134856 | 23.33° C | 90% | 1012.7 hPa | 0 mm | - | 0 W/m² | - |
| 1778134555 | 23.33° C | 90% | 1012.6 hPa | 0 mm | - | 0 W/m² | - |
* Rain latest hour (hover to see other rain measurements)
** Current wind speed in m/s (hover to see current wind gust speed)